This is the latest recevied weather packets stored in our database for station/object VK2ZAZ-10. If no packets are shown the sender has not sent any weather packets the latest 10 day(s).
| Time | Temp. | Humidity | Pressure | Rain* | Wind** | Luminosity | Snow |
|---|---|---|---|---|---|---|---|
| 1777945463 | 20.56° C | 50% | 1019.3 hPa | - | - | - | - |
| 1777943661 | 20.56° C | 49% | 1019.7 hPa | - | - | - | - |
| 1777941861 | 20° C | 49% | 1019.7 hPa | - | - | - | - |
| 1777940061 | 20° C | 49% | 1019.7 hPa | - | - | - | - |
| 1777938261 | 19.44° C | 48% | 1019.8 hPa | - | - | - | - |
| 1777936461 | 18.33° C | 48% | 1019.8 hPa | - | - | - | - |
| 1777934662 | 17.22° C | 49% | 1019.8 hPa | - | - | - | - |
| 1777932860 | 16.11° C | 49% | 1019.8 hPa | - | - | - | - |
| 1777931062 | 15.56° C | 50% | 1019.3 hPa | - | - | - | - |
| 1777929260 | 15.56° C | 50% | 1019 hPa | - | - | - | - |
| 1777927460 | 16.11° C | 50% | 1018.4 hPa | - | - | - | - |
| 1777925660 | 16.67° C | 50% | 1017.9 hPa | - | - | - | - |
| 1777923860 | 16.67° C | 50% | 1017.7 hPa | - | - | - | - |
| 1777922060 | 16.67° C | 50% | 1017.5 hPa | - | - | - | - |
| 1777920260 | 17.22° C | 50% | 1017.4 hPa | - | - | - | - |
| 1777918460 | 17.22° C | 50% | 1017.2 hPa | - | - | - | - |
| 1777916661 | 17.78° C | 50% | 1016.6 hPa | - | - | - | - |
| 1777914859 | 17.78° C | 50% | 1016.3 hPa | - | - | - | - |
| 1777913060 | 17.78° C | 50% | 1016.3 hPa | - | - | - | - |
| 1777911259 | 18.33° C | 50% | 1016.7 hPa | - | - | - | - |
| 1777909459 | 18.33° C | 51% | 1016.9 hPa | - | - | - | - |
| 1777907659 | 18.33° C | 50% | 1016.9 hPa | - | - | - | - |
| 1777905861 | 18.89° C | 50% | 1017.2 hPa | - | - | - | - |
| 1777904059 | 18.89° C | 49% | 1017.3 hPa | - | - | - | - |
| 1777902259 | 19.44° C | 48% | 1017.3 hPa | - | - | - | - |
* Rain since midnight (hover to see other rain measurements)
** Current wind speed in m/s (hover to see current wind gust speed)